Location: Hylvaty SDH
(49.9612°N, 16.4057°E)
Time: 19:00:58
(UTC+02:00)

S-56A Canister/Altair - All Passes

Search period start: 09 August 2020 00:00
Search period end: 19 August 2020 00:00
Orbit: 633 x 2499 km, 38.9° (Epoch: 08 August)

Date Brightness Start Highest point End Pass type
(mag) Time Alt. Az. Time Alt. Az. Time Alt. Az.
09 Aug - 06:55:46 10° SSW 07:01:32 24° SE 07:09:11 10° E daylight
09 Aug - 08:56:41 10° SW 09:04:41 44° SSE 09:16:11 10° ESE daylight
09 Aug - 10:59:33 10° WSW 11:09:07 45° S 11:22:05 10° SE daylight
09 Aug - 13:03:51 10° W 13:13:46 31° SSW 13:25:40 10° SSE daylight
09 Aug - 15:13:09 10° WSW 15:17:35 12° SW 15:22:12 10° SSW daylight
10 Aug - 06:23:56 10° S 06:28:54 20° SE 06:35:18 10° E daylight
10 Aug - 08:24:20 10° SW 08:31:45 41° SSE 08:42:28 10° E daylight
10 Aug - 10:26:56 10° WSW 10:35:57 45° S 10:48:30 10° ESE daylight
10 Aug - 12:30:55 10° W 12:40:34 32° SSW 12:52:31 10° SSE daylight
10 Aug - 14:38:46 10° WSW 14:44:32 14° SW 14:50:42 10° SSW daylight
11 Aug - 05:52:18 10° S 05:56:21 16° SE 06:01:19 10° ESE daylight
11 Aug - 07:52:04 10° SW 07:58:55 38° SSE 08:08:46 10° E daylight
11 Aug - 09:54:24 10° WSW 10:02:52 45° S 10:14:53 10° ESE daylight
11 Aug - 11:58:05 10° W 12:07:23 34° SSW 12:19:17 10° SSE daylight
11 Aug - 14:04:55 10° WSW 14:11:28 16° SW 14:18:40 10° SSW daylight
12 Aug - 05:21:02 10° SSE 05:23:51 13° SE 05:27:04 10° ESE daylight
12 Aug - 07:19:51 10° SW 07:26:08 34° SSE 07:35:06 10° E daylight
12 Aug - 09:21:56 10° WSW 09:29:50 44° S 09:41:16 10° ESE daylight
12 Aug - 11:25:21 10° W 11:34:14 35° SSW 11:45:57 10° SE daylight
12 Aug - 13:31:24 10° WSW 13:38:23 17° SW 13:46:17 10° S daylight
13 Aug - 06:47:42 10° SW 06:53:27 30° SSE 07:01:27 10° E daylight
13 Aug - 08:49:31 10° WSW 08:56:54 43° S 09:07:38 10° ESE daylight
13 Aug - 10:52:41 10° W 11:01:08 35° SSW 11:12:34 10° SE daylight
13 Aug - 12:58:07 10° WSW 13:05:19 19° SW 13:13:42 10° S daylight
14 Aug - 06:15:37 10° SSW 06:20:48 27° SSE 06:27:50 10° E daylight
14 Aug - 08:17:08 10° WSW 08:24:01 41° S 08:34:02 10° ESE daylight
14 Aug - 10:20:05 10° WSW 10:28:05 36° SSW 10:39:08 10° SE daylight
14 Aug - 12:25:01 10° WSW 12:32:15 20° SW 12:40:55 10° S daylight
15 Aug - 05:43:38 10° SSW 05:48:15 23° SSE 05:54:16 10° ESE daylight
15 Aug - 07:44:50 10° WSW 07:51:12 39° S 08:00:27 10° ESE daylight
15 Aug - 09:47:34 10° WSW 09:55:06 36° SSW 10:05:41 10° SE daylight
15 Aug - 11:52:03 10° WSW 11:59:13 21° SSW 12:08:01 10° S daylight
16 Aug - 05:11:45 10° SSW 05:15:43 19° SSE 05:20:41 10° ESE visible
16 Aug - 07:12:34 10° SW 07:18:27 36° S 07:26:55 10° ESE daylight
16 Aug - 09:15:06 10° WSW 09:22:10 36° S 09:32:13 10° SE daylight
16 Aug - 11:19:13 10° WSW 11:26:13 22° SSW 11:35:00 10° SSE daylight
17 Aug - 04:40:01 10° S 04:43:14 16° SE 04:47:03 10° ESE visible
17 Aug - 06:40:20 10° SW 06:45:46 34° SSE 06:53:27 10° ESE daylight
17 Aug - 08:42:41 10° WSW 08:49:17 36° S 08:58:45 10° SE daylight
17 Aug - 10:46:29 10° WSW 10:53:14 23° SSW 11:01:55 10° SSE daylight
18 Aug - 04:08:34 10° SSE 04:10:47 13° SE 04:13:14 10° ESE visible
18 Aug - 06:08:09 10° SW 06:13:08 31° SSE 06:20:01 10° ESE daylight
18 Aug - 08:10:18 10° WSW 08:16:28 35° S 08:25:18 10° SE daylight
18 Aug - 10:13:50 10° WSW 10:20:18 24° SSW 10:28:46 10° SSE daylight
